SWR3WL LSZH-LEMG

Flight info

Callsign SWR3WL
Flight time 2h 27m
Altitude 33000
Route VEBIT T50 ROTOS Z669 ULMES DCT VADAR DCT NINTU/N0432F390 DCT MEBAK DCT REPSI DCT LERGA DCT MINSO DCT NARAK DCT AGN DCT MAQAB DCT TIVLI DCT ELSAP DCT ZAR DCT EXEMU DCT PISUS DCT EDIMU DCT ADUXO DCT NUSGO DCT OBIBO DCT NASOS DCT ANZAN DCT BLN
Aircraft A20N/M-SDE2E3FGHIRWXY/LB1

Departure

Time 2026-04-26 10:10
Airport Zürich Airport (LSZH)

Arrival

Time 2026-04-26 12:38
Airport Málaga-Costa del Sol Airport (LEMG)
Time Latitude Longitude Altitude Speed Heading
2026-04-26 09:32 47.45337 8.55843 1401 ft 0 kts
2026-04-26 09:59 47.45335 8.55842 1401 ft 1 kts
2026-04-26 09:59 47.45320 8.55840 1401 ft 2 kts
2026-04-26 09:59 47.45306 8.55838 1401 ft 2 kts
2026-04-26 09:59 47.45292 8.55836 1401 ft 0 kts
2026-04-26 10:00 47.45281 8.55835 1401 ft 2 kts 348°
2026-04-26 10:00 47.45267 8.55844 1401 ft 2 kts 322°
2026-04-26 10:00 47.45257 8.55860 1402 ft 2 kts 296°
2026-04-26 10:00 47.45254 8.55875 1402 ft 0 kts 278°
2026-04-26 10:01 47.45253 8.55886 1403 ft 0 kts 275°
2026-04-26 10:01 47.45253 8.55885 1403 ft 0 kts 275°
2026-04-26 10:03 47.45254 8.55874 1402 ft 6 kts 277°
2026-04-26 10:03 47.45261 8.55768 1400 ft 9 kts 273°
2026-04-26 10:03 47.45269 8.55672 1396 ft 11 kts 277°
2026-04-26 10:04 47.45277 8.55594 1395 ft 7 kts 287°
2026-04-26 10:04 47.45320 8.55543 1395 ft 8 kts 339°
2026-04-26 10:04 47.45380 8.55504 1394 ft 10 kts 336°
2026-04-26 10:04 47.45454 8.55456 1393 ft 12 kts 335°
2026-04-26 10:05 47.45540 8.55396 1391 ft 14 kts 336°
2026-04-26 10:05 47.45632 8.55338 1389 ft 10 kts 349°
2026-04-26 10:05 47.45670 8.55408 1390 ft 9 kts 94°
2026-04-26 10:05 47.45661 8.55502 1391 ft 8 kts 99°
2026-04-26 10:06 47.45655 8.55583 1393 ft 7 kts 93°
2026-04-26 10:06 47.45651 8.55654 1395 ft 7 kts 96°
2026-04-26 10:06 47.45644 8.55762 1397 ft 11 kts 95°
2026-04-26 10:06 47.45635 8.55912 1400 ft 17 kts 96°
2026-04-26 10:07 47.45622 8.56096 1404 ft 17 kts 97°
2026-04-26 10:07 47.45614 8.56219 1407 ft 6 kts 97°
2026-04-26 10:07 47.45607 8.56313 1409 ft 11 kts 99°
2026-04-26 10:07 47.45594 8.56442 1411 ft 14 kts 96°
2026-04-26 10:08 47.45584 8.56582 1414 ft 13 kts 94°
2026-04-26 10:08 47.45575 8.56740 1416 ft 17 kts 96°
2026-04-26 10:08 47.45566 8.56863 1418 ft 7 kts 97°
2026-04-26 10:08 47.45565 8.56966 1419 ft 13 kts 73°
2026-04-26 10:09 47.45635 8.57022 1418 ft 13 kts 355°
2026-04-26 10:09 47.45670 8.56978 1416 ft 0 kts 280°
2026-04-26 10:09 47.45672 8.56967 1416 ft 10 kts 279°
2026-04-26 10:09 47.45703 8.56494 1410 ft 77 kts 278°
2026-04-26 10:10 47.45770 8.55527 1392 ft 111 kts 275°
2026-04-26 10:10 47.45881 8.54283 1391 ft 137 kts 286°
2026-04-26 10:10 47.46024 8.52831 1820 ft 143 kts 281°
2026-04-26 10:10 47.46100 8.51340 2254 ft 153 kts 283°
2026-04-26 10:11 47.46233 8.49681 2667 ft 169 kts 279°
2026-04-26 10:11 47.46221 8.47925 3219 ft 179 kts 254°
2026-04-26 10:11 47.45455 8.46475 3660 ft 193 kts 211°
2026-04-26 10:11 47.44204 8.45558 4113 ft 209 kts 208°
2026-04-26 10:12 47.43133 8.44054 4583 ft 224 kts 233°
2026-04-26 10:12 47.42234 8.42049 5052 ft 242 kts 238°
2026-04-26 10:12 47.41311 8.39875 5584 ft 259 kts 237°
2026-04-26 10:12 47.40300 8.37588 6175 ft 274 kts 236°
2026-04-26 10:13 47.39233 8.35216 6879 ft 284 kts 238°
2026-04-26 10:13 47.38248 8.32701 7745 ft 287 kts 242°
2026-04-26 10:13 47.37323 8.30102 8597 ft 289 kts 242°
2026-04-26 10:13 47.36406 8.27500 9403 ft 292 kts 242°
2026-04-26 10:14 47.35467 8.24843 10199 ft 295 kts 242°
2026-04-26 10:14 47.34512 8.22149 10883 ft 303 kts 242°
2026-04-26 10:14 47.33501 8.19307 11387 ft 316 kts 242°
2026-04-26 10:14 47.32485 8.16458 12103 ft 320 kts 242°
2026-04-26 10:15 47.31449 8.13553 12902 ft 322 kts 243°
2026-04-26 10:15 47.30419 8.10655 13662 ft 324 kts 243°
2026-04-26 10:15 47.29367 8.07697 14417 ft 327 kts 243°
2026-04-26 10:15 47.28311 8.04730 15138 ft 329 kts 243°
2026-04-26 10:16 47.27266 8.01777 15837 ft 332 kts 244°
2026-04-26 10:16 47.26302 7.98688 16557 ft 333 kts 248°
2026-04-26 10:16 47.25422 7.95550 17251 ft 335 kts 249°
2026-04-26 10:16 47.24532 7.92347 17916 ft 338 kts 249°
2026-04-26 10:17 47.23647 7.89167 18566 ft 341 kts 249°
2026-04-26 10:17 47.22751 7.85960 19207 ft 343 kts 248°
2026-04-26 10:17 47.21833 7.82686 19841 ft 346 kts 248°
2026-04-26 10:17 47.20925 7.79454 20450 ft 348 kts 248°
2026-04-26 10:18 47.19987 7.76153 21056 ft 351 kts 246°
2026-04-26 10:18 47.18880 7.72952 21655 ft 355 kts 241°
2026-04-26 10:18 47.17530 7.69902 22267 ft 358 kts 235°
2026-04-26 10:18 47.16022 7.67032 22873 ft 360 kts 233°
2026-04-26 10:19 47.14455 7.64130 23470 ft 362 kts 233°
2026-04-26 10:19 47.12898 7.61256 24031 ft 365 kts 233°
2026-04-26 10:19 47.11321 7.58344 24588 ft 368 kts 233°
2026-04-26 10:19 47.09720 7.55389 25136 ft 370 kts 233°
2026-04-26 10:20 47.08118 7.52431 25651 ft 373 kts 233°
2026-04-26 10:20 47.07037 7.50435 25989 ft 375 kts 233°
2026-04-26 10:20 47.04876 7.46454 26642 ft 378 kts 233°
2026-04-26 10:20 47.03245 7.43450 27123 ft 381 kts 233°
2026-04-26 10:21 47.01589 7.40408 27601 ft 383 kts 233°
2026-04-26 10:21 46.99923 7.37360 28051 ft 386 kts 233°
2026-04-26 10:21 46.98235 7.34279 28470 ft 389 kts 232°
2026-04-26 10:21 46.96542 7.31166 28933 ft 389 kts 233°
2026-04-26 10:22 46.94881 7.28081 29434 ft 389 kts 232°
2026-04-26 10:22 46.93175 7.24979 29600 ft 397 kts 232°
2026-04-26 10:22 46.91424 7.21808 29752 ft 404 kts 232°
2026-04-26 10:22 46.89664 7.18623 29896 ft 411 kts 232°
2026-04-26 10:23 46.87844 7.15326 30035 ft 418 kts 232°
2026-04-26 10:23 46.86019 7.12022 30168 ft 424 kts 232°
2026-04-26 10:23 46.84151 7.08639 30284 ft 430 kts 232°
2026-04-26 10:23 46.82261 7.05215 30401 ft 435 kts 232°
2026-04-26 10:24 46.80357 7.01769 30508 ft 440 kts 232°
2026-04-26 10:24 46.78424 6.98274 30610 ft 444 kts 232°
2026-04-26 10:24 46.74514 6.91216 30839 ft 450 kts 232°
2026-04-26 10:25 46.72570 6.87712 31133 ft 448 kts 232°
2026-04-26 10:25 46.70637 6.84234 31942 ft 435 kts 232°
2026-04-26 10:25 46.68798 6.80923 32696 ft 409 kts 232°
2026-04-26 10:25 46.67055 6.77735 33116 ft 403 kts 234°
2026-04-26 10:26 46.63920 6.71034 33188 ft 402 kts 240°
2026-04-26 10:26 46.61014 6.64047 33186 ft 402 kts 240°
2026-04-26 10:27 46.58133 6.57144 33178 ft 402 kts 240°
2026-04-26 10:27 46.55226 6.50202 33173 ft 403 kts 240°
2026-04-26 10:28 46.52328 6.43300 33174 ft 403 kts 240°
2026-04-26 10:28 46.49374 6.36286 33174 ft 414 kts 240°
2026-04-26 10:29 46.46333 6.29087 33176 ft 427 kts 239°
2026-04-26 10:29 46.43208 6.21720 33174 ft 431 kts 239°
2026-04-26 10:30 46.40081 6.14361 33172 ft 432 kts 239°
2026-04-26 10:30 46.36920 6.06932 33170 ft 433 kts 239°
2026-04-26 10:31 46.33775 5.99560 33165 ft 433 kts 239°
2026-04-26 10:31 46.30587 5.92109 33160 ft 433 kts 239°
2026-04-26 10:32 46.27431 5.84750 33159 ft 433 kts 239°
2026-04-26 10:32 46.24270 5.77400 33162 ft 433 kts 239°
2026-04-26 10:33 46.21090 5.70023 33158 ft 432 kts 239°
2026-04-26 10:33 46.17907 5.62660 33161 ft 434 kts 239°
2026-04-26 10:34 46.14708 5.55323 33159 ft 434 kts 238°
2026-04-26 10:34 46.11294 5.48152 33159 ft 435 kts 237°
2026-04-26 10:35 46.07883 5.41041 33161 ft 435 kts 237°
2026-04-26 10:35 46.06148 5.37431 33056 ft 436 kts 236°
2026-04-26 10:35 46.04429 5.33858 33047 ft 436 kts 236°
2026-04-26 10:36 46.00980 5.26710 33056 ft 436 kts 236°
2026-04-26 10:36 45.97536 5.19589 33057 ft 436 kts 236°
2026-04-26 10:37 45.94062 5.12420 33059 ft 436 kts 236°
2026-04-26 10:37 45.90612 5.05322 33057 ft 437 kts 236°
2026-04-26 10:38 45.87111 4.98138 33062 ft 437 kts 236°
2026-04-26 10:38 45.83637 4.91028 33061 ft 437 kts 236°
2026-04-26 10:39 45.80173 4.83952 33064 ft 438 kts 236°
2026-04-26 10:39 45.76664 4.76801 33055 ft 437 kts 236°
2026-04-26 10:40 45.73154 4.69675 33064 ft 438 kts 236°
2026-04-26 10:40 45.69637 4.62547 33054 ft 438 kts 236°
2026-04-26 10:41 45.66113 4.55422 33065 ft 439 kts 236°
2026-04-26 10:41 45.62583 4.48299 33061 ft 440 kts 236°
2026-04-26 10:42 45.59062 4.41218 33068 ft 441 kts 237°
2026-04-26 10:42 45.55499 4.34071 33065 ft 441 kts 236°
2026-04-26 10:43 45.51952 4.26973 33074 ft 442 kts 236°
2026-04-26 10:43 45.48365 4.19811 33064 ft 443 kts 236°
2026-04-26 10:44 45.44804 4.12717 33072 ft 444 kts 236°
2026-04-26 10:44 45.41201 4.05563 33071 ft 444 kts 236°
2026-04-26 10:45 45.37626 3.98477 33074 ft 444 kts 236°
2026-04-26 10:45 45.34019 3.91349 33084 ft 445 kts 236°
2026-04-26 10:46 45.30399 3.84215 33076 ft 445 kts 236°
2026-04-26 10:46 45.26771 3.77082 33080 ft 445 kts 236°
2026-04-26 10:47 45.23202 3.69949 33083 ft 445 kts 237°
2026-04-26 10:47 45.19673 3.62752 33085 ft 445 kts 237°
2026-04-26 10:48 45.16148 3.55593 33086 ft 446 kts 237°
2026-04-26 10:48 45.12595 3.48410 33092 ft 447 kts 237°
2026-04-26 10:49 45.09014 3.41191 33086 ft 447 kts 237°
2026-04-26 10:49 45.05441 3.34007 33087 ft 448 kts 237°
2026-04-26 10:50 45.02451 3.28009 33086 ft 449 kts 237°
2026-04-26 10:50 44.98252 3.19609 33093 ft 450 kts 237°
2026-04-26 10:51 44.92799 3.08734 33094 ft 451 kts 237°
2026-04-26 10:52 44.89152 3.01487 33094 ft 452 kts 237°
2026-04-26 10:52 44.85506 2.94261 33098 ft 453 kts 237°
2026-04-26 10:53 44.82069 2.86920 33095 ft 452 kts 239°
2026-04-26 10:53 44.78643 2.79480 33091 ft 452 kts 240°
2026-04-26 10:54 44.73537 2.68428 33090 ft 451 kts 240°
2026-04-26 10:54 44.70109 2.61034 33085 ft 451 kts 240°
2026-04-26 10:55 44.66689 2.53675 33081 ft 451 kts 240°
2026-04-26 10:55 44.63263 2.46323 33079 ft 452 kts 240°
2026-04-26 10:56 44.59827 2.38967 33073 ft 452 kts 240°
2026-04-26 10:56 44.56368 2.31581 33068 ft 451 kts 239°
2026-04-26 10:57 44.52935 2.24270 33069 ft 452 kts 239°
2026-04-26 10:57 44.49474 2.16919 33062 ft 452 kts 239°
2026-04-26 10:58 44.46021 2.09603 33062 ft 452 kts 239°
2026-04-26 10:58 44.42576 2.02322 33063 ft 452 kts 239°
2026-04-26 10:59 44.39089 1.94969 33060 ft 452 kts 239°
2026-04-26 10:59 44.35619 1.87672 33061 ft 452 kts 239°
2026-04-26 11:00 44.32144 1.80386 33059 ft 452 kts 239°
2026-04-26 11:00 44.28674 1.73096 33060 ft 452 kts 240°
2026-04-26 11:01 44.25279 1.65692 33058 ft 452 kts 240°
2026-04-26 11:01 44.21889 1.58288 33057 ft 452 kts 240°
2026-04-26 11:02 44.18511 1.50948 33057 ft 452 kts 240°
2026-04-26 11:02 44.15116 1.43602 33059 ft 452 kts 240°
2026-04-26 11:03 44.11702 1.36237 33058 ft 452 kts 240°
2026-04-26 11:03 44.08294 1.28901 33056 ft 454 kts 239°
2026-04-26 11:04 44.04845 1.21496 33056 ft 454 kts 239°
2026-04-26 11:04 44.01402 1.14126 33054 ft 453 kts 239°
2026-04-26 11:05 43.97982 1.06819 33053 ft 453 kts 239°
2026-04-26 11:05 43.94549 0.99508 33053 ft 453 kts 239°
2026-04-26 11:06 43.91625 0.93387 33053 ft 454 kts 237°
2026-04-26 11:06 43.86986 0.85461 33055 ft 456 kts 229°
2026-04-26 11:07 43.82384 0.79349 33056 ft 458 kts 224°
2026-04-26 11:07 43.77642 0.73508 33057 ft 458 kts 224°
2026-04-26 11:08 43.72895 0.67666 33057 ft 458 kts 224°
2026-04-26 11:08 43.68121 0.61798 33100 ft 457 kts 224°
2026-04-26 11:09 43.63338 0.55930 33149 ft 458 kts 224°
2026-04-26 11:09 43.58585 0.50108 33159 ft 458 kts 224°
2026-04-26 11:10 43.53822 0.44288 33160 ft 457 kts 223°
2026-04-26 11:10 43.49065 0.38486 33161 ft 457 kts 223°
2026-04-26 11:11 43.44304 0.32695 33163 ft 457 kts 223°
2026-04-26 11:11 43.39518 0.26887 33166 ft 457 kts 223°
2026-04-26 11:12 43.34782 0.21152 33168 ft 458 kts 222°
2026-04-26 11:12 43.29976 0.15350 33174 ft 459 kts 222°
2026-04-26 11:13 43.25201 0.09598 33177 ft 458 kts 222°
2026-04-26 11:13 43.20365 0.03785 33173 ft 457 kts 222°
2026-04-26 11:14 43.15593 -0.01938 33176 ft 457 kts 222°
2026-04-26 11:14 43.10796 -0.07680 33178 ft 457 kts 222°
2026-04-26 11:15 43.06022 -0.13382 33195 ft 457 kts 222°
2026-04-26 11:15 43.01240 -0.19081 33206 ft 457 kts 222°
2026-04-26 11:16 42.96449 -0.24778 33218 ft 457 kts 222°
2026-04-26 11:16 42.91680 -0.30436 33230 ft 457 kts 222°
2026-04-26 11:17 42.86848 -0.36135 33231 ft 457 kts 221°
2026-04-26 11:17 42.81777 -0.41263 33234 ft 458 kts 214°
2026-04-26 11:18 42.76253 -0.45579 33235 ft 458 kts 207°
2026-04-26 11:18 42.70407 -0.48992 33233 ft 458 kts 202°
2026-04-26 11:19 42.64423 -0.52120 33220 ft 457 kts 202°
2026-04-26 11:19 42.58481 -0.55231 33208 ft 457 kts 202°
2026-04-26 11:20 42.53570 -0.57803 33200 ft 456 kts 202°
2026-04-26 11:20 42.46660 -0.61417 33186 ft 456 kts 202°
2026-04-26 11:21 42.40764 -0.64495 33181 ft 455 kts 202°
2026-04-26 11:21 42.34824 -0.67587 33177 ft 454 kts 202°
2026-04-26 11:22 42.28952 -0.70639 33166 ft 452 kts 202°
2026-04-26 11:22 42.23106 -0.73672 33152 ft 450 kts 202°
2026-04-26 11:23 42.17254 -0.76703 33148 ft 450 kts 202°
2026-04-26 11:23 42.11429 -0.79714 33143 ft 451 kts 202°
2026-04-26 11:24 42.05576 -0.82730 33132 ft 450 kts 202°
2026-04-26 11:24 41.99754 -0.85727 33133 ft 449 kts 202°
2026-04-26 11:25 41.93877 -0.88746 33141 ft 449 kts 202°
2026-04-26 11:25 41.88053 -0.91729 33146 ft 449 kts 202°
2026-04-26 11:26 41.82210 -0.94718 33145 ft 449 kts 202°
2026-04-26 11:26 41.76355 -0.97704 33142 ft 449 kts 202°
2026-04-26 11:27 41.70536 -1.00699 33143 ft 449 kts 204°
2026-04-26 11:27 41.64901 -1.04309 33143 ft 448 kts 210°
2026-04-26 11:28 41.59606 -1.08747 33143 ft 447 kts 216°
2026-04-26 11:28 41.54508 -1.13441 33145 ft 447 kts 216°
2026-04-26 11:29 41.49372 -1.18157 33148 ft 447 kts 216°
2026-04-26 11:29 41.44274 -1.22823 33153 ft 447 kts 216°
2026-04-26 11:30 41.39988 -1.26742 33160 ft 448 kts 215°
2026-04-26 11:30 41.33997 -1.32205 33173 ft 447 kts 215°
2026-04-26 11:31 41.28861 -1.36879 33182 ft 447 kts 215°
2026-04-26 11:31 41.23727 -1.41540 33185 ft 447 kts 215°
2026-04-26 11:32 41.18607 -1.46178 33191 ft 446 kts 215°
2026-04-26 11:32 41.13475 -1.50823 33194 ft 447 kts 215°
2026-04-26 11:33 41.08310 -1.55487 33198 ft 447 kts 215°
2026-04-26 11:33 41.03189 -1.60101 33202 ft 447 kts 214°
2026-04-26 11:34 40.98038 -1.64731 33205 ft 447 kts 215°
2026-04-26 11:34 40.92904 -1.69339 33207 ft 447 kts 214°
2026-04-26 11:35 40.87733 -1.73975 33210 ft 447 kts 214°
2026-04-26 11:35 40.83460 -1.77797 33210 ft 447 kts 214°
2026-04-26 11:36 40.77463 -1.83148 33215 ft 449 kts 214°
2026-04-26 11:36 40.72297 -1.87750 33218 ft 450 kts 214°
2026-04-26 11:37 40.67092 -1.92376 33221 ft 451 kts 214°
2026-04-26 11:37 40.62063 -1.96839 33217 ft 451 kts 214°
2026-04-26 11:38 40.56842 -2.01463 33221 ft 450 kts 214°
2026-04-26 11:38 40.51679 -2.06027 33216 ft 450 kts 213°
2026-04-26 11:39 40.46471 -2.10621 33215 ft 452 kts 213°
2026-04-26 11:39 40.41244 -2.15222 33213 ft 453 kts 214°
2026-04-26 11:40 40.36013 -2.19821 33207 ft 454 kts 213°
2026-04-26 11:40 40.30777 -2.24416 33203 ft 455 kts 213°
2026-04-26 11:42 40.09720 -2.42801 33187 ft 456 kts 213°
2026-04-26 11:43 40.04439 -2.47390 33182 ft 456 kts 213°
2026-04-26 11:43 39.99182 -2.51950 33184 ft 456 kts 213°
2026-04-26 11:44 39.93879 -2.56541 33179 ft 457 kts 213°
2026-04-26 11:44 39.88580 -2.61120 33175 ft 457 kts 213°
2026-04-26 11:45 39.83292 -2.65681 33166 ft 457 kts 213°
2026-04-26 11:45 39.77992 -2.70243 33163 ft 457 kts 213°
2026-04-26 11:46 39.72693 -2.74796 33159 ft 457 kts 213°
2026-04-26 11:46 39.67391 -2.79341 33158 ft 457 kts 213°
2026-04-26 11:47 39.62091 -2.83879 33152 ft 458 kts 213°
2026-04-26 11:47 39.56794 -2.88403 33151 ft 458 kts 213°
2026-04-26 11:48 39.51472 -2.92942 33149 ft 458 kts 213°
2026-04-26 11:48 39.46154 -2.97468 33143 ft 459 kts 213°
2026-04-26 11:49 39.40682 -3.01774 33142 ft 464 kts 207°
2026-04-26 11:49 39.34725 -3.05311 33142 ft 474 kts 200°
2026-04-26 11:50 39.28507 -3.08330 33138 ft 481 kts 200°
2026-04-26 11:50 39.22241 -3.11362 33139 ft 481 kts 200°
2026-04-26 11:51 39.15998 -3.14388 33140 ft 482 kts 200°
2026-04-26 11:51 39.09698 -3.17439 33138 ft 483 kts 200°
2026-04-26 11:52 39.04485 -3.19961 33141 ft 482 kts 200°
2026-04-26 11:52 38.97139 -3.23504 33138 ft 481 kts 200°
2026-04-26 11:53 38.90866 -3.26519 33137 ft 481 kts 200°
2026-04-26 11:54 38.81426 -3.31049 33135 ft 481 kts 200°
2026-04-26 11:54 38.75122 -3.34068 33131 ft 483 kts 200°
2026-04-26 11:55 38.68861 -3.37060 33128 ft 483 kts 200°
2026-04-26 11:55 38.62570 -3.40061 33125 ft 482 kts 200°
2026-04-26 11:56 38.56271 -3.43061 33123 ft 481 kts 200°
2026-04-26 11:56 38.53140 -3.44549 32700 ft 481 kts 200°
2026-04-26 11:56 38.50028 -3.46026 32100 ft 480 kts 200°
2026-04-26 11:56 38.46900 -3.47509 31453 ft 480 kts 200°
2026-04-26 11:57 38.43762 -3.48996 30755 ft 477 kts 200°
2026-04-26 11:57 38.40681 -3.50455 30019 ft 473 kts 200°
2026-04-26 11:57 38.37617 -3.51905 29271 ft 469 kts 200°
2026-04-26 11:57 38.34571 -3.53345 28540 ft 465 kts 200°
2026-04-26 11:58 38.31579 -3.54759 28036 ft 459 kts 200°
2026-04-26 11:58 38.28610 -3.56161 27545 ft 456 kts 200°
2026-04-26 11:58 38.25652 -3.57557 27052 ft 453 kts 200°
2026-04-26 11:58 38.22708 -3.58944 26549 ft 451 kts 200°
2026-04-26 11:59 38.19776 -3.60324 26058 ft 447 kts 200°
2026-04-26 11:59 38.16909 -3.61838 25532 ft 444 kts 210°
2026-04-26 11:59 38.14459 -3.64173 25046 ft 439 kts 226°
2026-04-26 11:59 38.12583 -3.67196 24582 ft 435 kts 236°
2026-04-26 12:00 38.10905 -3.70361 24108 ft 432 kts 237°
2026-04-26 12:00 38.09245 -3.73520 23628 ft 429 kts 237°
2026-04-26 12:00 38.07591 -3.76655 23155 ft 425 kts 237°
2026-04-26 12:00 38.05949 -3.79746 22671 ft 423 kts 236°
2026-04-26 12:01 38.04322 -3.82796 22170 ft 421 kts 236°
2026-04-26 12:01 38.02669 -3.85883 21645 ft 419 kts 236°
2026-04-26 12:01 38.01032 -3.88931 21127 ft 416 kts 236°
2026-04-26 12:01 37.99429 -3.91913 20633 ft 414 kts 236°
2026-04-26 12:02 37.97806 -3.94925 20130 ft 411 kts 235°
2026-04-26 12:02 37.96744 -3.96892 19808 ft 410 kts 235°
2026-04-26 12:02 37.94605 -4.00855 19178 ft 406 kts 235°
2026-04-26 12:02 37.93019 -4.03788 18698 ft 404 kts 235°
2026-04-26 12:03 37.91430 -4.06726 18216 ft 402 kts 234°
2026-04-26 12:03 37.89859 -4.09622 17740 ft 400 kts 234°
2026-04-26 12:03 37.88307 -4.12484 17275 ft 397 kts 234°
2026-04-26 12:03 37.86743 -4.15364 16797 ft 395 kts 234°
2026-04-26 12:04 37.85200 -4.18203 16330 ft 393 kts 234°
2026-04-26 12:04 37.83660 -4.21034 15851 ft 391 kts 234°
2026-04-26 12:04 37.82126 -4.23855 15385 ft 389 kts 234°
2026-04-26 12:04 37.80593 -4.26667 14918 ft 387 kts 234°
2026-04-26 12:05 37.79070 -4.29462 14466 ft 385 kts 234°
2026-04-26 12:05 37.77555 -4.32242 14004 ft 383 kts 234°
2026-04-26 12:05 37.76060 -4.34982 13547 ft 381 kts 234°
2026-04-26 12:05 37.74553 -4.37741 13094 ft 379 kts 234°
2026-04-26 12:06 37.73064 -4.40464 12650 ft 377 kts 234°
2026-04-26 12:06 37.71578 -4.43181 12203 ft 374 kts 234°
2026-04-26 12:06 37.70117 -4.45848 11766 ft 370 kts 234°
2026-04-26 12:06 37.68664 -4.48499 11330 ft 367 kts 234°
2026-04-26 12:07 37.67216 -4.51138 10889 ft 364 kts 233°
2026-04-26 12:07 37.65793 -4.53730 10453 ft 362 kts 233°
2026-04-26 12:07 37.64359 -4.56337 10129 ft 358 kts 233°
2026-04-26 12:07 37.62662 -4.58625 9987 ft 354 kts 212°
2026-04-26 12:08 37.60496 -4.59950 10012 ft 351 kts 199°
2026-04-26 12:08 37.58198 -4.61071 10038 ft 351 kts 198°
2026-04-26 12:08 37.55940 -4.62175 10050 ft 351 kts 199°
2026-04-26 12:08 37.53670 -4.63297 10103 ft 338 kts 199°
2026-04-26 12:09 37.51578 -4.64349 10075 ft 309 kts 200°
2026-04-26 12:09 37.49633 -4.65337 10067 ft 296 kts 199°
2026-04-26 12:09 37.47719 -4.66308 10068 ft 295 kts 199°
2026-04-26 12:09 37.45833 -4.67262 10070 ft 294 kts 199°
2026-04-26 12:10 37.43938 -4.68218 10070 ft 294 kts 199°
2026-04-26 12:10 37.42043 -4.69172 10071 ft 293 kts 199°
2026-04-26 12:10 37.40143 -4.70127 10073 ft 293 kts 199°
2026-04-26 12:10 37.38245 -4.71079 10074 ft 293 kts 199°
2026-04-26 12:11 37.36348 -4.72033 10072 ft 293 kts 199°
2026-04-26 12:11 37.34458 -4.72980 10073 ft 293 kts 199°
2026-04-26 12:11 37.32549 -4.73937 10079 ft 293 kts 199°
2026-04-26 12:11 37.30665 -4.74881 10078 ft 293 kts 199°
2026-04-26 12:12 37.28773 -4.75826 10083 ft 293 kts 199°
2026-04-26 12:12 37.26868 -4.76776 10087 ft 293 kts 199°
2026-04-26 12:12 37.24965 -4.77726 10077 ft 293 kts 199°
2026-04-26 12:12 37.23711 -4.78355 10062 ft 285 kts 200°
2026-04-26 12:13 37.21267 -4.79582 10070 ft 283 kts 199°
2026-04-26 12:13 37.19380 -4.80233 10068 ft 279 kts 184°
2026-04-26 12:13 37.17452 -4.80309 10077 ft 277 kts 177°
2026-04-26 12:13 37.15528 -4.80265 10083 ft 277 kts 176°
2026-04-26 12:14 37.13580 -4.80215 9911 ft 278 kts 176°
2026-04-26 12:14 37.11675 -4.80178 9562 ft 274 kts 177°
2026-04-26 12:14 37.09747 -4.80150 9233 ft 272 kts 177°
2026-04-26 12:14 37.07876 -4.80126 8932 ft 272 kts 177°
2026-04-26 12:15 37.05982 -4.80104 8704 ft 270 kts 177°
2026-04-26 12:15 37.04108 -4.80082 8461 ft 269 kts 177°
2026-04-26 12:15 37.02228 -4.80061 8219 ft 265 kts 177°
2026-04-26 12:15 37.00420 -4.80044 7843 ft 257 kts 177°
2026-04-26 12:16 36.98641 -4.80029 7459 ft 254 kts 176°
2026-04-26 12:16 36.96901 -4.80013 7138 ft 252 kts 176°
2026-04-26 12:16 36.95145 -4.79995 6839 ft 250 kts 176°
2026-04-26 12:16 36.93404 -4.79904 6543 ft 247 kts 167°
2026-04-26 12:17 36.91765 -4.79393 6265 ft 243 kts 158°
2026-04-26 12:17 36.90168 -4.78700 5990 ft 241 kts 156°
2026-04-26 12:17 36.88587 -4.77991 5699 ft 240 kts 156°
2026-04-26 12:17 36.87048 -4.77267 5465 ft 234 kts 153°
2026-04-26 12:18 36.85611 -4.76385 5246 ft 227 kts 148°
2026-04-26 12:18 36.84217 -4.75442 4944 ft 226 kts 148°
2026-04-26 12:18 36.82847 -4.74508 4620 ft 226 kts 149°
2026-04-26 12:18 36.81466 -4.73570 4314 ft 226 kts 149°
2026-04-26 12:19 36.80075 -4.72630 4026 ft 226 kts 149°
2026-04-26 12:19 36.78714 -4.71712 3748 ft 224 kts 149°
2026-04-26 12:19 36.77442 -4.70631 3455 ft 218 kts 128°
2026-04-26 12:19 36.76638 -4.69065 3175 ft 214 kts 114°
2026-04-26 12:20 36.76014 -4.67375 2887 ft 213 kts 113°
2026-04-26 12:20 36.75390 -4.65737 2634 ft 205 kts 115°
2026-04-26 12:20 36.74766 -4.64220 2410 ft 187 kts 116°
2026-04-26 12:20 36.74191 -4.62861 2134 ft 169 kts 117°
2026-04-26 12:21 36.73669 -4.61634 1888 ft 152 kts 116°
2026-04-26 12:21 36.73198 -4.60524 1713 ft 137 kts 117°
2026-04-26 12:21 36.72781 -4.59529 1515 ft 125 kts 116°
2026-04-26 12:21 36.72385 -4.58570 1375 ft 125 kts 116°
2026-04-26 12:22 36.71983 -4.57609 1221 ft 125 kts 115°
2026-04-26 12:22 36.71579 -4.56643 1069 ft 124 kts 118°
2026-04-26 12:22 36.71172 -4.55680 920 ft 127 kts 116°
2026-04-26 12:22 36.70748 -4.54710 803 ft 128 kts 119°
2026-04-26 12:23 36.70320 -4.53729 582 ft 127 kts 117°
2026-04-26 12:23 36.69918 -4.52749 410 ft 127 kts 116°
2026-04-26 12:23 36.69520 -4.51763 223 ft 128 kts 118°
2026-04-26 12:23 36.69108 -4.50781 73 ft 128 kts 118°
2026-04-26 12:24 36.68682 -4.49801 71 ft 133 kts 117°
2026-04-26 12:24 36.68211 -4.48691 455 ft 156 kts 116°
2026-04-26 12:24 36.67730 -4.47457 1156 ft 160 kts 101°
2026-04-26 12:25 36.67625 -4.44698 2586 ft 174 kts 82°
2026-04-26 12:25 36.67793 -4.43109 2907 ft 197 kts 80°
2026-04-26 12:25 36.68002 -4.41389 2936 ft 205 kts 76°
2026-04-26 12:25 36.68708 -4.39874 2930 ft 208 kts 43°
2026-04-26 12:26 36.70018 -4.39069 2937 ft 214 kts 11°
2026-04-26 12:26 36.71489 -4.39316 2936 ft 222 kts 336°
2026-04-26 12:26 36.72720 -4.40498 2885 ft 226 kts 319°
2026-04-26 12:26 36.73871 -4.41851 2911 ft 228 kts 318°
2026-04-26 12:27 36.75038 -4.43231 2923 ft 227 kts 318°
2026-04-26 12:27 36.76172 -4.44566 2935 ft 226 kts 319°
2026-04-26 12:27 36.77325 -4.45917 2939 ft 225 kts 319°
2026-04-26 12:27 36.78466 -4.47244 2941 ft 224 kts 319°
2026-04-26 12:28 36.79603 -4.48563 2940 ft 224 kts 319°
2026-04-26 12:28 36.80751 -4.49897 2943 ft 225 kts 319°
2026-04-26 12:28 36.81894 -4.51225 2942 ft 225 kts 319°
2026-04-26 12:28 36.83032 -4.52550 2942 ft 225 kts 319°
2026-04-26 12:29 36.84177 -4.53879 2939 ft 226 kts 319°
2026-04-26 12:29 36.85337 -4.55227 2944 ft 228 kts 319°
2026-04-26 12:29 36.87604 -4.58039 2940 ft 232 kts 300°
2026-04-26 12:30 36.87938 -4.59956 2937 ft 229 kts 258°
2026-04-26 12:30 36.87345 -4.61783 2949 ft 222 kts 238°
2026-04-26 12:30 36.86584 -4.63384 2941 ft 212 kts 238°
2026-04-26 12:31 36.85207 -4.66628 2945 ft 210 kts 243°
2026-04-26 12:31 36.84592 -4.68282 2947 ft 211 kts 244°
2026-04-26 12:31 36.83988 -4.69950 2944 ft 212 kts 244°
2026-04-26 12:31 36.83189 -4.71501 2934 ft 219 kts 214°
2026-04-26 12:32 36.81881 -4.72076 2939 ft 185 kts 171°
2026-04-26 12:32 36.80839 -4.71379 2932 ft 168 kts 120°
2026-04-26 12:32 36.80264 -4.68631 2938 ft 164 kts 114°
2026-04-26 12:33 36.79686 -4.67403 2937 ft 167 kts 121°
2026-04-26 12:33 36.78999 -4.66210 2941 ft 167 kts 124°
2026-04-26 12:33 36.78288 -4.65082 2940 ft 166 kts 127°
2026-04-26 12:33 36.77540 -4.63972 2814 ft 167 kts 128°
2026-04-26 12:34 36.76805 -4.62931 2595 ft 154 kts 129°
2026-04-26 12:34 36.76103 -4.61957 2395 ft 147 kts 129°
2026-04-26 12:34 36.75433 -4.61025 2177 ft 141 kts 129°
2026-04-26 12:34 36.74797 -4.60134 2017 ft 136 kts 128°
2026-04-26 12:35 36.74191 -4.59285 1800 ft 128 kts 128°
2026-04-26 12:35 36.73591 -4.58443 1630 ft 128 kts 128°
2026-04-26 12:35 36.73014 -4.57632 1459 ft 129 kts 129°
2026-04-26 12:35 36.72407 -4.56783 1284 ft 129 kts 129°
2026-04-26 12:36 36.71815 -4.55952 1104 ft 127 kts 131°
2026-04-26 12:36 36.71224 -4.55127 922 ft 126 kts 131°
2026-04-26 12:36 36.70640 -4.54313 745 ft 126 kts 129°
2026-04-26 12:36 36.70054 -4.53494 568 ft 127 kts 129°
2026-04-26 12:37 36.69471 -4.52676 392 ft 126 kts 134°
2026-04-26 12:37 36.68890 -4.51870 220 ft 126 kts 129°
2026-04-26 12:37 36.68296 -4.51036 55 ft 123 kts 126°
2026-04-26 12:37 36.67857 -4.50422 49 ft 57 kts 131°
2026-04-26 12:38 36.67671 -4.50159 48 ft 15 kts 131°
2026-04-26 12:38 36.67590 -4.50044 49 ft 29 kts 129°
2026-04-26 12:38 36.67417 -4.49803 48 ft 29 kts 130°
2026-04-26 12:38 36.67335 -4.49662 44 ft 18 kts 116°
2026-04-26 12:39 36.67303 -4.49544 43 ft 17 kts 102°
2026-04-26 12:39 36.67295 -4.49502 42 ft 6 kts 99°
2026-04-26 12:39 36.67332 -4.49410 41 ft 16 kts 353°
2026-04-26 12:39 36.67367 -4.49443 41 ft 0 kts 307°
2026-04-26 12:40 36.67371 -4.49451 41 ft 6 kts 306°
2026-04-26 12:40 36.67433 -4.49491 41 ft 12 kts 16°
2026-04-26 12:40 36.67527 -4.49466 42 ft 11 kts 13°
2026-04-26 12:40 36.67569 -4.49471 42 ft 0 kts 307°
2026-04-26 12:41 36.67569 -4.49472 42 ft 0 kts 307°
2026-04-26 12:41 36.67590 -4.49505 43 ft 10 kts 306°
2026-04-26 12:41 36.67665 -4.49609 44 ft 1 kts 311°
2026-04-26 12:41 36.67715 -4.49679 44 ft 19 kts 325°
2026-04-26 12:42 36.67730 -4.49679 44 ft 0 kts 58°
2026-04-26 12:42 36.67736 -4.49661 43 ft 5 kts 66°
2026-04-26 12:42 36.67751 -4.49629 43 ft 3 kts 48°
2026-04-26 12:42 36.67768 -4.49610 43 ft 2 kts 40°
2026-04-26 12:43 36.67768 -4.49609 43 ft 0 kts 41°
2026-04-26 12:43 36.67769 -4.49608 43 ft 0 kts 41°